STARLINK-2029, 48320

Orbit data source: Space-Track

STARLINK-2029, 48320 is a payload satellite owned by SpaceX/Seattle (US) in LEO that was launched on Thu, 29 Apr 2021 UTC via an FALCON 9 launch vehicle from the Air Force Eastern Test Range (AFETR). Payload-class satellites include a variety of spacecraft equipped with specific instruments for various scientific and technological missions. These include communications satellites like Starlink; space stations such as the ISS; scientific satellites like the Hubble; Earth observation satellites from companies like Planet Labs, Umbra, and HawkEye 360; GPS; miniature CubeSats for education and research; and military/defense satellites.

Loading next visibility...
Identifier
48320, 2021-036AW
Orbit
LEO
Country
Flag of USUS
Related business
Manufacturer
SpaceX/Seattle
Mission
Operational Commercial Communications
Bus & Motor
STARLINK, Unknown motor
Mass
260 kg wet, ~248 kg dry
Launch date (UTC)
2021-04-29 (4 years ago)
Launch vehicle
FALCON 9
Launch site
Air Force Eastern Test Range (AFETR)
Object type
Payload
Rocket body
Debris
Shape & HBR
Box + 1 Pan, 10.1 m
Radar Cross Section
13.562 m², Large (>1 m²)

Expand to show TLE details & history
Last TLE update: 6 hours ago

TLE from 6 hours ago
0 STARLINK-2029
1 48320U 21036AW  25296.57925142  .00012194  00000-0  83533-3 0  9990
2 48320  53.0553 357.1305 0001345  98.7699 261.3442 15.06434717247367
Epoch: 2025-10-23T13:54Z
TLE epoch observation values (Epoch: 2025-10-23T13:54:07.322Z)
Latitude
-0.00006°
Longitude
116.36346°
Altitude
548.125 km
Speed
7.589 km/s
True Right ascension
23h 48m 31s
True Declination
0° 00' 00"
Sunlit
Object was in full shadow at epoch
Visualization orbit readout
Latitude
Unknown
Longitude
Unknown
Altitude
Unknown
Speed
Unknown
Apparent Right ascension
Unknown
Apparent Declination
Unknown
Sunlit
N/A
Visualization observer readout
Local Sidereal Time
15:02:49
Azimuth
Unknown
Elevation
Unknown
Doppler factor
Unknown
Orbital elements
Apogee altitude
548.307 km
Perigee altitude
546.444 km
Semi-major axis
6,925.513 km
Eccentricity
0.00013
Inclination
53.0553°
RAAN
357.1305°
Arg. of periapsis
98.7699°
True anomaly
261.32896°
Mean anomaly
261.3442°
Eccentric anomaly
261.33658°
Mean motion
3.76587 °/min
Orbital period
95.6 mins
BSTAR
0.00083533
Loading maneuver chart data...
Computing Atmospheric mass density...
Loading historical data...
Loading historical data...
Loading historical data...
Loading historical data...
Loading historical data...
Loading historical data...
Loading historical data...

Documentation

Showing up to 5 results
|